Location: Gälforsberget
(66.6500°N, 22.4167°E)
Time: 01:52:54
(UTC+00:00)

Cosmos 1953 - Pass Details

Date: 11 April 2026
Orbit: 471 x 483 km, 82.5° (Epoch: 20 May)

Event Time Altitude Azimuth Distance (km) Brightness Sun altitude
Rises 19:41:50 0° 227° (SW) 2,526 5.7 -8.8°
Reaches altitude 10° 19:44:04 10° 238° (WSW) 1,654 4.9 -9.0°
Maximum altitude 19:47:22 32° 303° (WNW) 840 4.1 -9.2°
Drops below altitude 10° 19:50:42 10° 9° (N) 1,671 5.4 -9.4°
Sets 19:52:58 0° 20° (NNE) 2,557 6.2 -9.5°
